BASE

EGKB 140620Z 19014KT CAVOK 10/08 Q1022

TAF EGKB 110723Z 1018/1121 CNL

Hangar Services – Aircraft Sales
fly@1aviation.co.uk
Biggin Hill – EGKB
51°19’14.2″N 0°02’05.7″E
NOTAM AIP – Plates
METAR TAF Weather
1aviation.co.uk
Hangar 170 – Churchill Way
Biggin Hill Airport TN16 3BN
Google Maps

CL605 in Hanger in Biggin Hill

pan1

viewtocanarywharf

1alogo